Regional Weather Roundup
Issued by NWS Little Rock, AR

Home | Current Version | Previous Version | Text Only | Print | Product List | Glossary Off
Versions: 1 2 3 4 5 6 7 8 9 10 11 12 13 14 15 16 17 18 19 20 21 22 23 24 25 26 27 28 29 30 31 32

000
ASUS44 KLZK 272205
RWRLZK

WEATHER ROUNDUP FOR ARKANSAS
NATIONAL WEATHER SERVICE LITTLE ROCK AR
500 PM CDT TUE JUN 27 2017

NOTE: "FAIR" INDICATES FEW OR NO CLOUDS BELOW 12,000 FEET WITH NO
SIGNIFICANT WEATHER AND/OR OBSTRUCTIONS TO VISIBILITY.

ARZ001-003-010-029-272300-
NORTHWEST ARKANSAS

CITY           SKY/WX    TMP DP  RH WIND       PRES   REMARKS
FAYETTEVILLE   SUNNY     82  64  54 S13       30.02F
FORT SMITH     MOSUNNY   87  67  51 E9        29.98F HX  90
HARRISON       MOSUNNY   82  61  48 SE8       30.05F
BENTONVILLE    MOSUNNY   84  63  48 SE9       30.03F HX  85
ROGERS         MOSUNNY   82  62  50 SE10      30.03F
SILOAM SPGS    SUNNY     84  63  48 SE8       30.01F HX  85
HIGHFILL       MOSUNNY   85  63  47 SW10      30.02F HX  86
SPRINGDALE     MOSUNNY   84  63  48 S8        30.04F HX  85
$$

ARZ004-005-016-272300-
NORTH CENTRAL ARKANSAS

CITY           SKY/WX    TMP DP  RH WIND       PRES   REMARKS
BATESVILLE     MOSUNNY   82  63  51 E7        30.05F
FLIPPIN        MOSUNNY   82  61  47 E8        30.02F
MTN HOME       PTSUNNY   82  64  54 S6        30.04F
$$

ARZ040-041-272300-
WEST CENTRAL ARKANSAS

CITY           SKY/WX    TMP DP  RH WIND       PRES   REMARKS
MENA           PTSUNNY   88  64  45 SE6       30.02F HX  89
MOUNT IDA      PTSUNNY   85  59  41 SE8       30.01F
$$

ARZ009-017-025-026-028-272300-
NORTHEAST ARKANSAS

CITY           SKY/WX    TMP DP  RH WIND       PRES   REMARKS
CORNING        LGT RAIN  81  64  57 S3        30.07F
JONESBORO      SUNNY     82  66  58 VRB7      30.04F
WALNUT RIDGE   MOSUNNY   81  64  57 NE5       30.05F
BLYTHEVILLE    MOSUNNY   80  64  58 VRB5      30.06F
$$

ARZ022-023-033-042-044-272300-
CENTRAL ARKANSAS

CITY           SKY/WX    TMP DP  RH WIND       PRES   REMARKS
LITTLE ROCK    PTSUNNY   84  65  52 E8        30.03F HX  86
CONWAY           N/A     84  63  48 E10       30.01S HX  85
SEARCY         SUNNY     85  65  51 VRB5      30.05F HX  86
HOT SPRINGS    MOSUNNY   84  62  47 SE8       30.02F HX  85
RUSSELLVILLE   MOSUNNY   83  63  50 SE6       30.02F
CLINTON        FAIR      82  66  57 E7        30.04F HX  85
$$

ARZ036-272300-
EAST ARKANSAS

CITY           SKY/WX    TMP DP  RH WIND       PRES   REMARKS
WEST MEMPHIS   MOSUNNY   83  63  50 E6        30.03F
$$

ARZ050-053-066-070-073-272300-
SOUTHWEST ARKANSAS

CITY           SKY/WX    TMP DP  RH WIND       PRES   REMARKS
ARKADELPHIA    FAIR      84  68  58 VRB3      30.01F HX  87
CAMDEN         LGT RAIN  88  59  37 SE6       30.00F HX  87
TEXARKANA      SUNNY     87  63  44 VRB7      29.98  HX  88
EL DORADO      MOSUNNY   87  63  44 E7        30.00F HX  88
DE QUEEN       SUNNY     87  67  51 SE9       29.97F HX  90
$$

ARZ056-057-069-272300-
SOUTHEAST ARKANSAS

CITY           SKY/WX    TMP DP  RH WIND       PRES   REMARKS
PINE BLUFF     SUNNY     84  65  52 SE6       30.03F HX  86
STUTTGART      PTSUNNY   84  57  39 E6        30.04F
MONTICELLO     SUNNY     86  61  42 E7        30.02F HX  86

$$






USA.gov is the U.S. government's official web portal to all federal, state and local government web resources and services.